Location: Unspecified
(0.0000°N, 0.0000°E)
Time: 07:24:45
(UTC+00:00)

S-56A Canister/Altair - Pass Details

Date: 02 June 2024
Orbit: 637 x 2489 km, 38.9° (Epoch: 22 June)

Event Time Altitude Azimuth Distance (km) Brightness Sun altitude
Rises 00:41:14 0° 244° (WSW) 5,177 - -65.4°
Reaches altitude 10° 00:44:27 10° 250° (WSW) 4,399 - -65.1°
Maximum altitude 00:56:34 50° 321° (NW) 2,847 - -63.6°
Exits shadow 01:03:16 33° 12° (NNE) 3,564 10.9 -62.7°
Drops below altitude 10° 01:10:56 10° 32° (NNE) 5,118 12.0 -61.6°
Sets 01:15:05 0° 37° (NE) 6,055 12.5 -60.9°
